SCP
0 0 0 0 0 0 0 0 0 0 0 0 0 0 0 0 0 0 0 0 0 0 0 0 0 0 0 0 0 0 0 0 0 0 0 0 0 0 0 0 0 0 0 0
0 0 0 0 0 0 0 0 0 0 0 0 0 0 0 0 0 0 0 0 0 0 0 0 0 0 0 0 0 0 0 0 0 0 0 0 0 0 0 0 0 0 0 0
0 0 0 0 0 0 0 0 0 0 0 0 0 0 0 0 0 0 0 0 0 0 0 0 0 0 0 0 0 0 0 0 0 0 0 0 0 0 0 0 0 0 0 0
0 0 0 0 0 0 0 0 0 0 0 0 0 0 0 0 0 0 0 0 0 0 0 0 0 0 0 0 0 0 0 0 0 0 0 0 0 0 0 0 0 0 0 0
0 0 -0 0 0 0 0 0 0 0 0 0 0 0 0 0 0 0 0 0 0 0 0 0 0 0 0 0 0 0 0 0 0 0 0 0 0 0 0 0 0 0 0 0
0 0 -0 -0 0 0 0 0 0 0 0 0 0 0 0 0 0 0 0 0 0 0 0 0 0 0 0 0 0 0 0 0 0 0 0 0 0 0 0 0 0 0 0 0
0 0 0 0 0 0 0 0 0 0 0 0 0 0 0 0 0 0 0 0 0 0 0 0 0 0 0 0 0 0 0 0 0 0 0 0 0 0 0 0 0 0 0 0
0 0 0 0 0 0 0 0 0 0 0 0 0 0 0 0 0 0 0 0 0 0 0 0 0 0 0 0 0 0 0 0 0 0 0 0 0 0 0 0 0 0 0 0
0 0 0 0 0 0 0 0 0 0 0 0 0 0 0 0 0 0 0 0 0 0 0 0 0 0 0 0 0 0 0 0 0 0 0 0 0 0 0 0 0 0 0 0
0 0 0 0 0 0 0 0 0 0 0 0 0 0 0 0 0 0 0 0 0 0 0 0 0 0 0 0 0 0 0 0 0 0 0 0 0 0 0 0 0 0 0 0
0 0 0 0 -0 0 0 0 0 0 0 0 0 0 0 0 0 0 0 0 0 0 0 0 0 0 0 0 0 0 0 0 0 0 0 0 0 0 0 0 0 0 -0 0
0 0 -0 -0 -0 0 0 0 0 0 0 0 0 0 0 0 0 0 0 0 0 0 0 0 0 0 0 0 0 0 0 0 0 0 0 0 0 0 0 0 0 -0 0 0
0 0 -0 0 0 0 0 0 0 0 0 0 0 0 0 0 0 0 0 0 0 0 0 0 0 0 0 0 0 0 0 0 0 0 0 0 0 0 -0 0 0 -0 -0 0
0 0 0 0 0 0 0 0 0 0 0 0 0 0 0 0 0 0 0 0 0 0 0 0 0 0 0 0 0 0 0 0 0 0 0 0 0 0 0 -0 -0 -0 0 0
0 0 0 0 0 0 0 0 0 0 0 0 0 0 0 0 0 0 0 0 0 0 0 0 0 0 0 0 0 0 0 0 0 0 0 0 0 0 0 0 -0 0 0 0
0 0 0 0 0 0 0 0 0 0 0 0 0 0 0 0 0 0 0 0 0 0 0 0 0 0 0 0 0 0 0 0 0 0 0 0 0 0 0 0 0 0 0 0
0 0 0 0 0 0 0 0 0 0 0 0 0 0 0 0 0 0 0 0 0 0 0 0 0 0 0 0 0 0 0 0 0 0 0 -0 0 0 0 0 0 0 0 0
0 0 0 0 0 0 0 0 0 0 0 0 0 0 0 0 0 0 0 0 0 0 0 0 0 0 0 0 0 0 0 -0 0 0 0 0 0 0 0 0 0 0 0 0
0 0 0 0 0 0 0 0 0 0 0 0 0 0 0 0 0 0 0 0 0 0 0 0 0 0 0 0 0 0 -0 -0 -0 -0 0 0 0 -0 0 0 0 0 0 0
0 0 0 0 0 0 0 0 0 0 0 0 0 0 0 0 0 0 0 0 0 0 0 0 0 0 0 0 0 -0 -0 -0 -0 -0 0 0 -0 0 0 -0 0 0 0 0
0 0 0 0 0 0 0 0 0 0 0 0 0 0 0 0 0 0 0 0 0 0 0 0 0 0 0 -0 -0 -0 -0 -0 -0 -0 0 -0 0 0 0 0 0 0 0 0
0 0 0 0 0 0 0 0 0 0 0 0 0 0 0 0 0 0 0 0 0 0 0 0 0 0 -0 -0 -0 -0 -0 -0 0 -0 -0 0 0 0 0 0 0 0 0 0
0 0 0 0 0 0 0 0 0 0 0 0 0 0 0 0 0 0 0 0 0 0 0 0 0 -0 -0 -0 -0 -0 -0 -0 0 -0 0 0 0 0 0 0 0 0 0 0
0 0 0 0 0 0 0 0 0 0 0 0 0 0 0 0 0 0 0 0 0 0 0 0 0 -0 -0 -0 -0 -0 -0 0 0 -0 0 -0 0 0 0 0 0 0 0 0
0 0 0 0 0 0 0 0 0 0 0 0 0 0 0 0 0 0 0 0 0 0 0 0 -0 -0 -0 -0 -0 -0 0 0 0 0 0 0 0 0 0 0 0 0 0 0
0 0 0 0 0 0 0 0 0 0 0 0 0 0 0 0 0 0 0 0 0 0 0 0 0 -0 0 0 0 -0 0 0 -0 0 0 0 0 0 0 0 0 0 0 0
0 0 0 0 0 0 0 0 0 0 0 0 0 0 0 0 0 0 0 0 0 0 0 0 -0 -0 0 0 0 0 0 0 -0 0 0 0 0 0 0 0 0 0 0 0
Wind_Speed_500mb
8 8 3 5 9 11 13 8 10 8 13 12 19 25 43 54 49 51 50 46 38 36 36 30 22 15 15 21 25 25 23 22 26 31 35 36 36 35 38 48 54 56 54 54
6 5 4 8 11 9 9 6 9 8 10 7 10 20 27 48 53 57 54 45 38 36 32 23 14 13 17 20 20 20 20 24 31 33 33 33 34 39 49 52 53 53 55 56
8 8 11 12 11 12 8 7 11 11 15 8 7 15 27 40 54 58 51 41 40 32 21 11 10 15 18 21 21 22 25 31 31 30 31 32 40 48 51 53 55 56 55 53
5 8 3 8 2 1 8 7 6 3 8 9 10 11 6 18 42 45 39 39 33 21 10 9 13 17 19 18 20 24 28 30 31 35 36 39 45 50 53 55 56 56 55 60
4 4 13 3 0 3 4 10 14 13 9 13 24 13 15 5 15 31 37 32 21 11 8 10 12 14 17 18 20 25 30 34 36 37 38 43 48 54 54 57 56 57 64 71
4 4 8 8 2 2 3 10 8 17 13 20 15 5 6 17 24 33 28 18 10 4 3 7 10 13 17 20 24 27 31 34 33 34 40 45 53 53 54 53 57 65 69 60
5 5 15 10 3 2 8 12 4 16 27 34 8 10 14 33 30 23 18 12 7 1 6 9 13 20 23 26 29 32 38 36 33 35 41 48 52 52 51 55 61 66 59 55
4 2 12 12 8 9 8 2 2 8 23 38 19 14 37 35 30 22 15 10 3 6 10 14 19 24 26 30 30 36 34 33 34 38 43 48 50 49 52 56 64 57 51 50
16 11 9 23 8 11 2 7 9 10 17 27 25 37 38 35 26 18 12 5 3 9 15 20 20 24 29 30 31 29 33 36 38 39 44 46 47 50 55 58 52 50 45 52
5 6 17 33 27 30 14 12 13 11 12 23 29 39 36 29 24 17 9 2 6 13 18 20 22 28 29 28 28 31 36 36 38 43 44 43 46 50 52 51 47 46 50 56
10 19 22 31 28 27 24 17 19 18 17 27 30 36 29 28 21 13 7 4 11 17 20 23 24 24 25 26 30 30 33 37 42 42 43 46 50 46 51 44 40 46 50 54
12 19 7 8 7 25 33 29 24 24 32 30 27 31 30 25 18 11 5 9 15 20 20 22 22 26 25 26 27 33 39 43 41 42 44 48 49 54 40 40 40 40 41 39
12 6 14 13 13 20 32 30 26 22 18 35 31 28 27 21 13 6 8 13 21 20 23 22 24 25 25 25 30 43 44 40 41 42 44 47 52 47 54 51 44 47 35 39
36 21 10 19 11 23 30 31 28 23 26 31 32 28 22 14 8 7 13 20 21 23 21 21 22 24 26 31 37 43 40 38 41 40 42 47 43 45 44 49 53 54 45 38
29 29 20 15 19 32 34 38 37 39 40 37 29 23 15 10 6 12 18 22 21 18 20 24 22 20 24 32 37 38 39 38 39 40 42 39 41 42 44 52 48 52 49 45
26 29 20 24 33 40 41 41 40 43 39 34 27 19 14 8 11 16 19 18 19 22 23 21 17 20 26 34 38 35 34 37 38 41 39 38 37 37 48 46 47 46 51 52
32 27 33 37 44 48 43 39 35 40 37 29 24 19 12 10 13 14 15 16 18 20 19 14 19 21 28 36 28 35 42 38 38 39 42 40 38 43 41 42 47 47 50 50
34 27 26 27 48 48 45 38 38 36 30 25 22 15 10 10 12 12 15 18 18 15 15 19 19 19 26 31 33 37 37 36 37 38 42 38 38 39 41 43 45 50 52 53
42 31 30 31 43 46 46 45 37 31 26 23 17 9 7 8 10 15 18 14 10 15 20 21 18 21 27 27 31 33 34 34 31 38 40 38 40 40 43 43 45 49 51 54
47 31 36 43 48 46 46 40 35 31 25 17 10 5 4 6 12 15 12 10 15 22 25 23 17 23 27 26 30 33 32 31 33 41 37 37 39 43 44 45 47 51 51 53
43 45 52 55 52 45 40 38 33 27 21 13 5 3 3 8 11 11 9 12 18 20 17 12 18 21 27 29 31 31 31 31 33 40 38 41 42 43 46 48 52 53 54 54
54 59 58 56 52 47 39 34 26 21 16 11 6 2 5 6 7 9 9 16 17 14 11 15 19 21 26 28 29 31 31 31 32 41 39 44 44 45 46 45 55 54 57 60
63 61 59 55 53 49 42 31 23 17 14 9 4 2 4 4 6 6 7 11 9 12 17 18 17 22 25 27 30 32 33 32 32 40 41 45 46 44 47 45 51 56 60 62
65 60 56 55 51 46 41 32 24 18 13 8 4 2 3 7 4 6 7 6 7 14 15 19 19 22 25 28 31 33 34 33 33 37 43 44 48 47 47 48 49 53 58 58
61 60 59 55 47 40 33 31 25 19 13 9 5 4 2 9 7 2 7 3 3 7 10 14 18 22 26 29 32 35 35 36 36 37 43 47 51 50 51 51 47 51 58 61
62 60 54 45 39 35 31 27 23 18 14 10 8 8 3 5 5 5 4 5 9 11 10 14 18 23 27 30 34 36 36 36 35 37 42 48 52 50 52 53 52 54 60 63
57 54 52 45 36 32 28 26 21 17 14 9 8 10 4 6 6 4 2 4 9 11 11 14 18 23 27 31 35 37 37 36 37 39 43 47 51 51 54 59 59 56 60 63
Wind_Direction_500mb
247 238 263 259 242 187 198 174 165 239 205 243 204 199 197 199 197 196 200 199 200 197 193 196 204 231 271 291 300 306 306 297 296 298 299 300 303 304 305 308 311 311 308 306
305 334 316 276 265 222 223 179 259 170 251 228 155 181 184 203 199 203 203 201 198 193 194 198 219 265 292 303 311 315 310 309 310 306 301 303 304 307 310 310 311 308 307 307
278 345 331 298 235 203 203 188 161 190 227 165 179 199 208 207 206 206 203 199 194 192 186 208 266 288 299 308 313 314 315 318 320 318 314 312 311 311 313 312 310 310 310 308
254 1 284 250 255 253 228 254 180 156 188 167 132 124 196 225 217 213 205 189 179 176 198 259 285 296 302 304 308 309 313 317 319 321 320 316 313 315 312 310 311 313 312 311
110 213 288 339 155 191 175 279 197 187 146 107 127 119 54 114 196 207 184 171 171 190 248 284 306 314 315 316 309 310 314 311 311 312 312 312 313 315 312 311 312 313 313 314
114 115 236 249 261 6 66 298 198 163 155 155 145 104 259 141 154 154 156 160 175 213 291 328 330 340 336 329 325 323 322 317 312 310 307 309 312 313 314 313 313 314 315 316
148 228 286 244 236 90 80 247 34 185 177 165 159 180 162 162 154 153 156 159 157 129 355 360 342 333 331 327 328 322 322 320 314 308 308 310 312 315 314 313 314 316 317 318
89 111 292 175 112 178 216 48 125 152 186 185 188 150 156 160 159 158 159 154 107 14 353 339 324 314 317 319 314 317 321 323 320 313 310 312 315 315 315 316 317 319 321 326
180 215 246 201 201 202 192 176 179 164 167 189 174 160 164 163 161 159 157 137 8 332 326 322 317 314 316 316 314 319 324 324 320 314 315 317 317 317 318 322 321 322 325 326
66 263 238 246 244 242 230 221 193 184 182 180 174 164 165 165 166 169 163 192 315 320 319 320 317 316 316 318 319 320 321 320 318 318 319 319 319 320 320 324 323 326 323 321
263 277 267 265 248 243 217 200 189 179 186 176 170 168 172 168 171 167 183 254 307 318 321 320 320 328 328 324 322 325 329 325 322 321 321 322 324 326 325 326 324 320 318 316
232 235 217 232 260 221 206 199 199 189 169 172 178 170 167 167 167 182 232 298 314 319 317 322 323 329 327 325 328 330 329 326 324 324 323 325 328 327 328 326 321 319 321 316
257 247 235 255 244 206 204 193 184 177 181 171 166 168 167 167 175 218 283 306 313 316 319 316 318 325 328 333 335 331 325 324 325 324 323 326 328 329 330 333 331 329 324 323
253 253 220 218 218 197 193 176 169 164 168 167 165 167 165 170 196 269 297 309 314 315 315 315 319 324 331 333 322 324 324 324 324 324 325 328 330 328 329 336 334 335 337 328
245 230 236 221 193 177 176 171 166 163 164 166 170 171 178 199 252 291 306 313 316 318 316 314 309 308 325 330 328 327 326 329 327 328 329 329 328 327 331 334 333 331 336 340
207 207 214 210 191 175 174 172 168 165 169 170 173 183 198 228 288 303 311 314 318 322 325 320 314 324 340 340 335 334 342 335 331 332 331 335 338 334 331 336 336 337 341 341
183 184 192 192 182 178 182 178 176 170 169 175 183 193 214 269 293 308 313 319 324 327 324 323 322 330 343 337 346 336 333 334 337 342 345 345 342 333 337 337 336 338 340 342
237 248 226 216 187 178 173 171 171 171 174 180 189 205 246 285 306 320 326 326 324 325 319 323 320 335 337 334 335 330 333 339 341 343 344 343 336 338 340 340 343 342 339 343
214 209 200 193 187 174 168 169 172 172 174 182 199 223 268 303 323 334 336 349 5 352 345 340 330 328 328 331 333 337 341 344 348 347 345 345 347 349 346 345 344 342 342 343
186 184 178 172 170 169 166 169 168 167 173 191 202 231 284 321 337 347 358 22 14 346 338 333 333 330 338 346 342 343 345 348 349 349 349 348 353 352 355 354 349 345 341 345
176 169 166 164 164 166 167 165 166 170 177 182 198 234 298 334 350 6 24 31 6 345 346 352 355 343 340 347 347 348 349 351 351 351 348 351 349 351 354 357 351 347 348 345
168 164 162 163 162 161 163 162 166 175 177 175 187 243 330 356 10 19 28 22 3 2 13 9 350 337 344 349 352 352 353 352 349 351 347 349 351 347 348 352 347 349 351 348
166 164 163 163 162 161 160 163 167 177 172 172 197 270 336 16 17 41 27 42 25 23 8 354 339 346 354 356 356 357 356 353 352 354 351 350 351 352 348 348 344 347 350 348
165 166 165 164 165 165 162 164 171 171 174 179 196 278 28 14 43 24 52 81 14 4 353 342 353 359 1 0 0 358 357 356 354 354 354 351 352 356 352 352 351 354 349 349
167 166 166 167 169 167 169 171 174 175 179 180 180 157 63 21 15 1 168 131 349 7 350 356 4 7 5 4 3 0 0 359 358 357 355 354 353 358 358 353 352 357 352 355
169 170 171 172 172 172 171 175 177 179 184 183 170 171 199 357 50 65 91 60 27 11 19 13 13 13 8 7 5 3 3 2 1 1 358 353 355 1 359 357 358 357 353 353
174 172 167 166 171 172 173 178 183 185 185 182 180 185 174 127 138 128 81 24 15 19 22 18 16 16 12 11 8 7 6 4 3 2 358 355 356 1 3 2 359 359 356 353
Wind_Speed_850mb
8 8 3 5 9 11 13 8 10 8 13 12 19 25 43 54 49 51 50 46 38 36 36 30 22 15 15 21 25 25 23 22 26 31 35 36 36 35 38 48 54 56 54 54
6 5 4 8 11 9 9 6 9 8 10 7 10 20 27 48 53 57 54 45 38 36 32 23 14 13 17 20 20 20 20 24 31 33 33 33 34 39 49 52 53 53 55 56
8 8 11 12 11 12 8 7 11 11 15 8 7 15 27 40 54 58 51 41 40 32 21 11 10 15 18 21 21 22 25 31 31 30 31 32 40 48 51 53 55 56 55 53
5 8 3 8 2 1 8 7 6 3 8 9 10 11 6 18 42 45 39 39 33 21 10 9 13 17 19 18 20 24 28 30 31 35 36 39 45 50 53 55 56 56 55 60
4 4 13 3 0 3 4 10 14 13 9 13 24 13 15 5 15 31 37 32 21 11 8 10 12 14 17 18 20 25 30 34 36 37 38 43 48 54 54 57 56 57 64 71
4 4 8 8 2 2 3 10 8 17 13 20 15 5 6 17 24 33 28 18 10 4 3 7 10 13 17 20 24 27 31 34 33 34 40 45 53 53 54 53 57 65 69 60
5 5 15 10 3 2 8 12 4 16 27 34 8 10 14 33 30 23 18 12 7 1 6 9 13 20 23 26 29 32 38 36 33 35 41 48 52 52 51 55 61 66 59 55
4 2 12 12 8 9 8 2 2 8 23 38 19 14 37 35 30 22 15 10 3 6 10 14 19 24 26 30 30 36 34 33 34 38 43 48 50 49 52 56 64 57 51 50
16 11 9 23 8 11 2 7 9 10 17 27 25 37 38 35 26 18 12 5 3 9 15 20 20 24 29 30 31 29 33 36 38 39 44 46 47 50 55 58 52 50 45 52
5 6 17 33 27 30 14 12 13 11 12 23 29 39 36 29 24 17 9 2 6 13 18 20 22 28 29 28 28 31 36 36 38 43 44 43 46 50 52 51 47 46 50 56
10 19 22 31 28 27 24 17 19 18 17 27 30 36 29 28 21 13 7 4 11 17 20 23 24 24 25 26 30 30 33 37 42 42 43 46 50 46 51 44 40 46 50 54
12 19 7 8 7 25 33 29 24 24 32 30 27 31 30 25 18 11 5 9 15 20 20 22 22 26 25 26 27 33 39 43 41 42 44 48 49 54 40 40 40 40 41 39
12 6 14 13 13 20 32 30 26 22 18 35 31 28 27 21 13 6 8 13 21 20 23 22 24 25 25 25 30 43 44 40 41 42 44 47 52 47 54 51 44 47 35 39
36 21 10 19 11 23 30 31 28 23 26 31 32 28 22 14 8 7 13 20 21 23 21 21 22 24 26 31 37 43 40 38 41 40 42 47 43 45 44 49 53 54 45 38
29 29 20 15 19 32 34 38 37 39 40 37 29 23 15 10 6 12 18 22 21 18 20 24 22 20 24 32 37 38 39 38 39 40 42 39 41 42 44 52 48 52 49 45
26 29 20 24 33 40 41 41 40 43 39 34 27 19 14 8 11 16 19 18 19 22 23 21 17 20 26 34 38 35 34 37 38 41 39 38 37 37 48 46 47 46 51 52
32 27 33 37 44 48 43 39 35 40 37 29 24 19 12 10 13 14 15 16 18 20 19 14 19 21 28 36 28 35 42 38 38 39 42 40 38 43 41 42 47 47 50 50
34 27 26 27 48 48 45 38 38 36 30 25 22 15 10 10 12 12 15 18 18 15 15 19 19 19 26 31 33 37 37 36 37 38 42 38 38 39 41 43 45 50 52 53
42 31 30 31 43 46 46 45 37 31 26 23 17 9 7 8 10 15 18 14 10 15 20 21 18 21 27 27 31 33 34 34 31 38 40 38 40 40 43 43 45 49 51 54
47 31 36 43 48 46 46 40 35 31 25 17 10 5 4 6 12 15 12 10 15 22 25 23 17 23 27 26 30 33 32 31 33 41 37 37 39 43 44 45 47 51 51 53
43 45 52 55 52 45 40 38 33 27 21 13 5 3 3 8 11 11 9 12 18 20 17 12 18 21 27 29 31 31 31 31 33 40 38 41 42 43 46 48 52 53 54 54
54 59 58 56 52 47 39 34 26 21 16 11 6 2 5 6 7 9 9 16 17 14 11 15 19 21 26 28 29 31 31 31 32 41 39 44 44 45 46 45 55 54 57 60
63 61 59 55 53 49 42 31 23 17 14 9 4 2 4 4 6 6 7 11 9 12 17 18 17 22 25 27 30 32 33 32 32 40 41 45 46 44 47 45 51 56 60 62
65 60 56 55 51 46 41 32 24 18 13 8 4 2 3 7 4 6 7 6 7 14 15 19 19 22 25 28 31 33 34 33 33 37 43 44 48 47 47 48 49 53 58 58
61 60 59 55 47 40 33 31 25 19 13 9 5 4 2 9 7 2 7 3 3 7 10 14 18 22 26 29 32 35 35 36 36 37 43 47 51 50 51 51 47 51 58 61
62 60 54 45 39 35 31 27 23 18 14 10 8 8 3 5 5 5 4 5 9 11 10 14 18 23 27 30 34 36 36 36 35 37 42 48 52 50 52 53 52 54 60 63
57 54 52 45 36 32 28 26 21 17 14 9 8 10 4 6 6 4 2 4 9 11 11 14 18 23 27 31 35 37 37 36 37 39 43 47 51 51 54 59 59 56 60 63
Wind_Direction_850mb
247 238 263 259 242 187 198 174 165 239 205 243 204 199 197 199 197 196 200 199 200 197 193 196 204 231 271 291 300 306 306 297 296 298 299 300 303 304 305 308 311 311 308 306
305 334 316 276 265 222 223 179 259 170 251 228 155 181 184 203 199 203 203 201 198 193 194 198 219 265 292 303 311 315 310 309 310 306 301 303 304 307 310 310 311 308 307 307
278 345 331 298 235 203 203 188 161 190 227 165 179 199 208 207 206 206 203 199 194 192 186 208 266 288 299 308 313 314 315 318 320 318 314 312 311 311 313 312 310 310 310 308
254 1 284 250 255 253 228 254 180 156 188 167 132 124 196 225 217 213 205 189 179 176 198 259 285 296 302 304 308 309 313 317 319 321 320 316 313 315 312 310 311 313 312 311
110 213 288 339 155 191 175 279 197 187 146 107 127 119 54 114 196 207 184 171 171 190 248 284 306 314 315 316 309 310 314 311 311 312 312 312 313 315 312 311 312 313 313 314
114 115 236 249 261 6 66 298 198 163 155 155 145 104 259 141 154 154 156 160 175 213 291 328 330 340 336 329 325 323 322 317 312 310 307 309 312 313 314 313 313 314 315 316
148 228 286 244 236 90 80 247 34 185 177 165 159 180 162 162 154 153 156 159 157 129 355 360 342 333 331 327 328 322 322 320 314 308 308 310 312 315 314 313 314 316 317 318
89 111 292 175 112 178 216 48 125 152 186 185 188 150 156 160 159 158 159 154 107 14 353 339 324 314 317 319 314 317 321 323 320 313 310 312 315 315 315 316 317 319 321 326
180 215 246 201 201 202 192 176 179 164 167 189 174 160 164 163 161 159 157 137 8 332 326 322 317 314 316 316 314 319 324 324 320 314 315 317 317 317 318 322 321 322 325 326
66 263 238 246 244 242 230 221 193 184 182 180 174 164 165 165 166 169 163 192 315 320 319 320 317 316 316 318 319 320 321 320 318 318 319 319 319 320 320 324 323 326 323 321
263 277 267 265 248 243 217 200 189 179 186 176 170 168 172 168 171 167 183 254 307 318 321 320 320 328 328 324 322 325 329 325 322 321 321 322 324 326 325 326 324 320 318 316
232 235 217 232 260 221 206 199 199 189 169 172 178 170 167 167 167 182 232 298 314 319 317 322 323 329 327 325 328 330 329 326 324 324 323 325 328 327 328 326 321 319 321 316
257 247 235 255 244 206 204 193 184 177 181 171 166 168 167 167 175 218 283 306 313 316 319 316 318 325 328 333 335 331 325 324 325 324 323 326 328 329 330 333 331 329 324 323
253 253 220 218 218 197 193 176 169 164 168 167 165 167 165 170 196 269 297 309 314 315 315 315 319 324 331 333 322 324 324 324 324 324 325 328 330 328 329 336 334 335 337 328
245 230 236 221 193 177 176 171 166 163 164 166 170 171 178 199 252 291 306 313 316 318 316 314 309 308 325 330 328 327 326 329 327 328 329 329 328 327 331 334 333 331 336 340
207 207 214 210 191 175 174 172 168 165 169 170 173 183 198 228 288 303 311 314 318 322 325 320 314 324 340 340 335 334 342 335 331 332 331 335 338 334 331 336 336 337 341 341
183 184 192 192 182 178 182 178 176 170 169 175 183 193 214 269 293 308 313 319 324 327 324 323 322 330 343 337 346 336 333 334 337 342 345 345 342 333 337 337 336 338 340 342
237 248 226 216 187 178 173 171 171 171 174 180 189 205 246 285 306 320 326 326 324 325 319 323 320 335 337 334 335 330 333 339 341 343 344 343 336 338 340 340 343 342 339 343
214 209 200 193 187 174 168 169 172 172 174 182 199 223 268 303 323 334 336 349 5 352 345 340 330 328 328 331 333 337 341 344 348 347 345 345 347 349 346 345 344 342 342 343
186 184 178 172 170 169 166 169 168 167 173 191 202 231 284 321 337 347 358 22 14 346 338 333 333 330 338 346 342 343 345 348 349 349 349 348 353 352 355 354 349 345 341 345
176 169 166 164 164 166 167 165 166 170 177 182 198 234 298 334 350 6 24 31 6 345 346 352 355 343 340 347 347 348 349 351 351 351 348 351 349 351 354 357 351 347 348 345
168 164 162 163 162 161 163 162 166 175 177 175 187 243 330 356 10 19 28 22 3 2 13 9 350 337 344 349 352 352 353 352 349 351 347 349 351 347 348 352 347 349 351 348
166 164 163 163 162 161 160 163 167 177 172 172 197 270 336 16 17 41 27 42 25 23 8 354 339 346 354 356 356 357 356 353 352 354 351 350 351 352 348 348 344 347 350 348
165 166 165 164 165 165 162 164 171 171 174 179 196 278 28 14 43 24 52 81 14 4 353 342 353 359 1 0 0 358 357 356 354 354 354 351 352 356 352 352 351 354 349 349
167 166 166 167 169 167 169 171 174 175 179 180 180 157 63 21 15 1 168 131 349 7 350 356 4 7 5 4 3 0 0 359 358 357 355 354 353 358 358 353 352 357 352 355
169 170 171 172 172 172 171 175 177 179 184 183 170 171 199 357 50 65 91 60 27 11 19 13 13 13 8 7 5 3 3 2 1 1 358 353 355 1 359 357 358 357 353 353
174 172 167 166 171 172 173 178 183 185 185 182 180 185 174 127 138 128 81 24 15 19 22 18 16 16 12 11 8 7 6 4 3 2 358 355 356 1 3 2 359 359 356 353